Regional Weather Roundup
Issued by NWS

Home | Current Version | Previous Version | Text Only | Print | Product List | Glossary Off
Versions: 1 2 3 4 5 6 7 8 9 10 11 12 13 14 15 16 17 18 19 20 21 22 23 24 25 26 27 28 29 30 31 32 33 34 35 36 37 38 39 40 41 42 43 44 45 46 47 48 49 50

000
ASUS43 KFSD 302202
RWRSD

WEATHER ROUNDUP FOR SOUTH DAKOTA
NATIONAL WEATHER SERVICE SIOUX FALLS SD
500 PM CDT FRI SEP 30 2016

NOTE: "FAIR" INDICATES FEW OR NO CLOUDS BELOW 12,000 FEET WITH NO
SIGNIFICANT WEATHER AND/OR OBSTRUCTIONS TO VISIBILITY.


SDZ001>005-009-010-012>017-302300-
NORTHWEST AND NORTH CENTRAL SOUTH DAKOTA

CITY           SKY/WX    TMP DP  RH WIND       PRES   REMARKS
BUFFALO          N/A     74  47  38 SE20      29.94S
FAITH            N/A     73  47  39 S21       30.02F
MOBRIDGE       MOSUNNY   74  44  34 SE23G31   30.06F
$$

SDZ012>016-024>037-041>051-057-063-072>074-302300-
SOUTHWEST AND SOUTH CENTRAL SOUTH DAKOTA

CITY           SKY/WX    TMP DP  RH WIND       PRES   REMARKS
RAPID CTY ARPT CLOUDY    70  50  49 SE9       30.02F
PIERRE         MOSUNNY   72  46  39 SE18      30.06F
CUSTER         CLOUDY    65  45  48 SW3       30.16S
ELLSWORTH AFB  CLOUDY    71  51  49 SE7       30.02F
PHILIP         PTSUNNY   77  49  37 SE15G23   30.00F
PINE RIDGE     CLOUDY    72  46  39 S16       30.08R
WINNER         FAIR      75  46  35 SE18G26   30.11F
$$

SDZ004>011-016>023-039-040-302300-
NORTHEAST SOUTH DAKOTA

CITY           SKY/WX    TMP DP  RH WIND       PRES   REMARKS
ABERDEEN       CLOUDY    73  43  33 S15G25    30.15F
WATERTOWN      SUNNY     71  45  39 SE9       30.19F
SISSETON         N/A     70  50  49 SE12G21   30.18F
$$

SDZ017-020-022-023-036>040-048>070-302300-
SOUTHEAST SOUTH DAKOTA

CITY           SKY/WX    TMP DP  RH WIND       PRES   REMARKS
SIOUX FALLS    PTSUNNY   73  46  38 SE8       30.18F
HURON          MOSUNNY   69  46  43 SE13G21   30.14F
CHAMBERLAIN    PTSUNNY   74  48  39 SE16G25   30.13F
MITCHELL       MOSUNNY   71  44  37 S13       30.16F
YANKTON        CLOUDY    72  46  40 SE10      30.15F
$$

ABBREVIATIONS USED IN REMARKS
   TC - TEMPERATURE IN CELSIUS
  WCI - WIND CHILL INDEX
   HX - HEAT INDEX
  VSB - VISIBILITY





USA.gov is the U.S. government's official web portal to all federal, state and local government web resources and services.